This demonstration page uses our WeatherBlox Daily Observations layout. Learn more.

41.55636, -103.73856

Hourly Observations for April 1, 2019

Temp ( °F °C ) Dew Point ( °F °C ) Humidity (%) Winds ( mph kmh ) Pressure ( in mb ) Visibility ( mi km ) Precip ( " mm )
12:53 am 00:53 Clear 32 0 N/A N/A E 7 11 30.06 1018 10 16.09344 0 0
1:53 am 01:53 Clear 30 -1 N/A N/A ENE 5 7 30.06 1018 10 16.09344 0 0
2:53 am 02:53 Clear 28 -2 N/A N/A Calm 30.06 1018 10 16.09344 0 0
3:53 am 03:53 Clear 30 -1 N/A N/A Calm 30.03 1017 10 16.09344 0 0
4:53 am 04:53 Clear 27 -3 N/A N/A E 6 9 30.03 1017 10 16.09344 0 0
5:53 am 05:53 Clear 27 -3 N/A N/A NE 5 7 30.03 1017 10 16.09344 0 0
6:53 am 06:53 Sunny 25 -4 N/A N/A NNW 5 7 30.03 1017 10 16.09344 0 0
7:53 am 07:53 Sunny 36 2 N/A N/A Calm 30 1016 10 16.09344 0 0
8:53 am 08:53 Sunny N/A N/A N/A Calm N/A 10 16.09344 0 0
9:53 am 09:53 Sunny 46 8 N/A N/A WNW 15 24 30 1016 10 16.09344 0 0
10:53 am 10:53 Sunny 54 12 N/A N/A WNW 17 28 29.97 1015 10 16.09344 0 0
11:53 am 11:53 Mostly Sunny 55 13 N/A N/A NW 20 31 29.94 1014 N/A 0 0
12:53 pm 12:53 Mostly Sunny 55 13 N/A N/A NW 18 30 29.94 1014 10 16.09344 0 0
1:53 pm 13:53 Mostly Cloudy 55 13 N/A N/A NW 23 37 29.97 1015 10 16.09344 0 0
2:53 pm 14:53 Sunny 56 13.3 24 -4.4 29 29 NW 24 39 29.94 1014 10 16.09344 0 0
3:53 pm 15:53 Mostly Cloudy 54 12.2 22 -5.6 29 29 NNW 22 35 29.94 1014 10 16.09344 0 0
4:53 pm 16:53 Mostly Sunny 55 12.8 22 -5.6 28 28 NW 20 31 29.97 1015 10 16.09344 0 0
5:53 pm 17:53 Cloudy with Light Rain 47 8.3 31 -0.6 54 54 NNW 21 33 30.03 1017 10 16.09344 0.001 0.001
6:53 pm 18:53 Cloudy 48 8.9 28 -2.2 46 46 NNW 10 17 30.03 1017 10 16.09344 0.001 0.001
7:53 pm 19:53 Partly Cloudy 42 5.6 32 0 68 68 N 14 22 30.03 1017 10 16.09344 0 0
8:53 pm 20:53 Cloudy 39 3.9 32 0 76 76 NNW 6 9 30.12 1020 10 16.09344 0 0
9:53 pm 21:53 Clear 35 1.7 30 -1.1 82 82 E 5 7 30.09 1019 10 16.09344 0 0
10:53 pm 22:53 Cloudy 37 2.8 32 0 82 82 Calm 30.09 1019 10 16.09344 0 0
11:53 pm 23:53 Clear 32 0 28 -2.2 85 85 Calm 30.06 1018 10 16.09344 0 0

Powered by AerisWeather